• In Deutschland
  • Länderverzeichnis
  • Für 7 Tage
  • Wassertemperatur
  • Satellitenkarten
  • Wetterkarte
  • Widgets
  • user-avatar
    Anmelden

    Stündliche Wetter Völklingen

    Heute, 23 September, Sonntag

    Zeit Temperatur Niederschläge Wind Luftdruck Luftfeuchtigkeit
    00:00 +12°C° 0 mm 3 m/S 741 mmHg 87%
    01:00 +12°C° 0.4 mm 3 m/S 740 mmHg 87%
    02:00 +13°C° 0.4 mm 4 m/S 740 mmHg 87%
    03:00 +13°C° 0.4 mm 4 m/S 739 mmHg 87%
    04:00 +14°C° 0.5 mm 5 m/S 739 mmHg 88%
    05:00 +15°C° 0.5 mm 6 m/S 738 mmHg 89%
    06:00 +16°C° 0 mm 6 m/S 738 mmHg 90%
    07:00 +16°C° 0.4 mm 7 m/S 738 mmHg 90%
    08:00 +17°C° 0.4 mm 7 m/S 738 mmHg 90%
    09:00 +17°C° 0.4 mm 8 m/S 738 mmHg 90%
    10:00 +18°C° 0.3 mm 9 m/S 737 mmHg 89%
    11:00 +19°C° 0.3 mm 9 m/S 736 mmHg 88%
    12:00 +20°C° 0 mm 8 m/S 735 mmHg 88%
    13:00 +19°C° 1.3 mm 9 m/S 735 mmHg 88%
    14:00 +19°C° 1.3 mm 10 m/S 735 mmHg 87%
    15:00 +19°C° 1.3 mm 11 m/S 735 mmHg 87%
    16:00 +17°C° 1.4 mm 9 m/S 736 mmHg 87%
    17:00 +13°C° 1.4 mm 8 m/S 737 mmHg 88%
    18:00 +11°C° 1.4 mm 6 m/S 739 mmHg 89%
    19:00 +10°C° 0 mm 5 m/S 740 mmHg 89%
    20:00 +9°C° 0 mm 5 m/S 742 mmHg 89%
    21:00 +8°C° 0 mm 4 m/S 744 mmHg 90%
    22:00 +9°C° 0 mm 3 m/S 745 mmHg 91%
    23:00 +8°C° 0 mm 3 m/S 746 mmHg 91%

    Morgen, 24 September, Montag

    Zeit Temperatur Niederschläge Wind Luftdruck Luftfeuchtigkeit
    00:00 +7°C° 0 mm 2 m/S 748 mmHg 92%
    01:00 +7°C° 0 mm 2 m/S 748 mmHg 93%
    02:00 +6°C° 0 mm 2 m/S 749 mmHg 94%
    03:00 +7°C° 0 mm 1 m/S 750 mmHg 94%
    04:00 +7°C° 0 mm 1 m/S 750 mmHg 94%
    05:00 +7°C° 0 mm 1 m/S 751 mmHg 94%
    06:00 +7°C° 0 mm 1 m/S 752 mmHg 94%
    07:00 +8°C° 0 mm 2 m/S 752 mmHg 84%
    08:00 +9°C° 0 mm 2 m/S 753 mmHg 74%
    09:00 +11°C° 0 mm 3 m/S 753 mmHg 65%
    10:00 +13°C° 0 mm 3 m/S 753 mmHg 58%
    11:00 +14°C° 0 mm 3 m/S 753 mmHg 52%
    12:00 +16°C° 0 mm 3 m/S 753 mmHg 45%
    13:00 +16°C° 0 mm 3 m/S 753 mmHg 46%
    14:00 +16°C° 0 mm 3 m/S 753 mmHg 47%
    15:00 +16°C° 0 mm 3 m/S 753 mmHg 47%
    16:00 +13°C° 0 mm 3 m/S 753 mmHg 55%
    17:00 +12°C° 0 mm 2 m/S 753 mmHg 63%
    18:00 +10°C° 0 mm 2 m/S 753 mmHg 71%
    19:00 +9°C° 0 mm 2 m/S 754 mmHg 75%
    20:00 +8°C° 0 mm 2 m/S 754 mmHg 79%
    21:00 +7°C° 0 mm 2 m/S 754 mmHg 83%
    22:00 +7°C° 0 mm 2 m/S 755 mmHg 84%
    23:00 +6°C° 0 mm 2 m/S 755 mmHg 86%

    übermorgen, 25 September, Dienstag

    Zeit Temperatur Niederschläge Wind Luftdruck Luftfeuchtigkeit
    00:00 +6°C° 0 mm 2 m/S 755 mmHg 87%
    01:00 +6°C° 0 mm 2 m/S 755 mmHg 88%
    02:00 +5°C° 0 mm 2 m/S 755 mmHg 88%
    03:00 +5°C° 0 mm 2 m/S 754 mmHg 88%
    04:00 +5°C° 0 mm 2 m/S 755 mmHg 88%
    05:00 +5°C° 0 mm 2 m/S 755 mmHg 88%
    06:00 +4°C° 0 mm 3 m/S 755 mmHg 89%
    07:00 +7°C° 0 mm 3 m/S 755 mmHg 78%
    08:00 +8°C° 0 mm 4 m/S 755 mmHg 68%
    09:00 +11°C° 0 mm 4 m/S 755 mmHg 58%
    10:00 +12°C° 0 mm 4 m/S 755 mmHg 54%
    11:00 +13°C° 0 mm 5 m/S 755 mmHg 50%
    12:00 +15°C° 0 mm 5 m/S 755 mmHg 45%
    13:00 +15°C° 0 mm 5 m/S 754 mmHg 45%
    14:00 +15°C° 0 mm 5 m/S 754 mmHg 45%
    15:00 +15°C° 0 mm 4 m/S 754 mmHg 45%
    16:00 +13°C° 0 mm 4 m/S 753 mmHg 50%
    17:00 +11°C° 0 mm 3 m/S 753 mmHg 55%
    18:00 +9°C° 0 mm 3 m/S 753 mmHg 61%
    19:00 +9°C° 0 mm 3 m/S 753 mmHg 61%
    20:00 +8°C° 0 mm 3 m/S 754 mmHg 62%
    21:00 +8°C° 0 mm 3 m/S 754 mmHg 63%
    22:00 +8°C° 0 mm 3 m/S 754 mmHg 65%
    23:00 +7°C° 0 mm 3 m/S 753 mmHg 66%

    26 September, Mittwoch

    Zeit Temperatur Niederschläge Wind Luftdruck Luftfeuchtigkeit
    00:00 +7°C° 0 mm 3 m/S 753 mmHg 68%
    01:00 +5°C° 0 mm 3 m/S 753 mmHg 69%
    02:00 +6°C° 0 mm 2 m/S 753 mmHg 70%
    03:00 +5°C° 0 mm 2 m/S 753 mmHg 71%
    04:00 +5°C° 0 mm 2 m/S 753 mmHg 71%
    05:00 +5°C° 0 mm 2 m/S 753 mmHg 71%
    06:00 +5°C° 0 mm 2 m/S 752 mmHg 71%
    07:00 +7°C° 0 mm 2 m/S 753 mmHg 63%
    08:00 +10°C° 0 mm 2 m/S 753 mmHg 54%
    09:00 +13°C° 0 mm 2 m/S 753 mmHg 46%
    10:00 +15°C° 0 mm 1 m/S 753 mmHg 43%
    11:00 +18°C° 0 mm 1 m/S 752 mmHg 39%
    12:00 +20°C° 0 mm 1 m/S 752 mmHg 35%
    13:00 +20°C° 0 mm 1 m/S 752 mmHg 35%
    14:00 +18°C° 0 mm 0 m/S 751 mmHg 35%
    15:00 +19°C° 0 mm 0 m/S 751 mmHg 35%
    16:00 +16°C° 0 mm 0 m/S 751 mmHg 41%
    17:00 +14°C° 0 mm 0 m/S 751 mmHg 47%
    18:00 +11°C° 0 mm 0 m/S 751 mmHg 53%
    19:00 +11°C° 0 mm 0 m/S 751 mmHg 54%
    20:00 +10°C° 0 mm 0 m/S 751 mmHg 56%
    21:00 +10°C° 0 mm 0 m/S 751 mmHg 58%
    22:00 +9°C° 0 mm 0 m/S 751 mmHg 59%
    23:00 +9°C° 0 mm 0 m/S 751 mmHg 60%

    27 September, Donnerstag

    Zeit Temperatur Niederschläge Wind Luftdruck Luftfeuchtigkeit
    00:00 +8°C° 0 mm 0 m/S 751 mmHg 62%
    01:00 +8°C° 0 mm 0 m/S 750 mmHg 63%
    02:00 +8°C° 0 mm 0 m/S 750 mmHg 64%
    03:00 +8°C° 0 mm 0 m/S 750 mmHg 65%
    04:00 +8°C° 0 mm 0 m/S 750 mmHg 66%
    05:00 +8°C° 0 mm 0 m/S 750 mmHg 66%
    06:00 +8°C° 0 mm 0 m/S 750 mmHg 67%
    07:00 +10°C° 0 mm 0 m/S 750 mmHg 61%
    08:00 +14°C° 0 mm 1 m/S 750 mmHg 55%
    09:00 +18°C° 0 mm 1 m/S 750 mmHg 49%
    10:00 +20°C° 0 mm 1 m/S 749 mmHg 47%
    11:00 +21°C° 0 mm 1 m/S 749 mmHg 44%
    12:00 +23°C° 0 mm 2 m/S 748 mmHg 42%
    13:00 +23°C° 0 mm 2 m/S 748 mmHg 43%
    14:00 +23°C° 0 mm 2 m/S 747 mmHg 44%
    15:00 +23°C° 0 mm 2 m/S 747 mmHg 44%
    16:00 +20°C° 0 mm 2 m/S 746 mmHg 52%
    17:00 +18°C° 0 mm 1 m/S 746 mmHg 60%
    18:00 +15°C° 0 mm 1 m/S 746 mmHg 67%
    19:00 +14°C° 0 mm 1 m/S 746 mmHg 69%
    20:00 +14°C° 0 mm 1 m/S 746 mmHg 71%
    21:00 +13°C° 0 mm 1 m/S 746 mmHg 74%
    22:00 +12°C° 0 mm 1 m/S 746 mmHg 75%
    23:00 +12°C° 0 mm 1 m/S 746 mmHg 77%

    28 September, Freitag

    Zeit Temperatur Niederschläge Wind Luftdruck Luftfeuchtigkeit
    00:00 +10°C° 0 mm 0 m/S 745 mmHg 78%
    01:00 +10°C° 0 mm 0 m/S 745 mmHg 79%
    02:00 +10°C° 0 mm 1 m/S 745 mmHg 80%
    03:00 +10°C° 0 mm 1 m/S 745 mmHg 81%
    04:00 +10°C° 0 mm 1 m/S 745 mmHg 82%
    05:00 +10°C° 0 mm 1 m/S 745 mmHg 82%
    06:00 +9°C° 0 mm 1 m/S 745 mmHg 83%
    07:00 +12°C° 0 mm 1 m/S 745 mmHg 74%
    08:00 +14°C° 0 mm 1 m/S 745 mmHg 66%
    09:00 +17°C° 0 mm 2 m/S 745 mmHg 57%
    10:00 +18°C° 0 mm 2 m/S 745 mmHg 53%
    11:00 +19°C° 0 mm 2 m/S 745 mmHg 49%
    12:00 +21°C° 0 mm 2 m/S 745 mmHg 45%
    13:00 +20°C° 0 mm 3 m/S 744 mmHg 48%
    14:00 +20°C° 0 mm 4 m/S 744 mmHg 51%
    15:00 +20°C° 0 mm 4 m/S 744 mmHg 54%
    16:00 +18°C° 0 mm 4 m/S 744 mmHg 63%
    17:00 +15°C° 0 mm 4 m/S 744 mmHg 72%
    18:00 +13°C° 0 mm 4 m/S 745 mmHg 81%
    19:00 +12°C° 0 mm 5 m/S 745 mmHg 82%
    20:00 +10°C° 0 mm 5 m/S 745 mmHg 82%
    21:00 +9°C° 0 mm 5 m/S 746 mmHg 83%
    22:00 +9°C° 0 mm 5 m/S 746 mmHg 83%
    23:00 +8°C° 0 mm 5 m/S 746 mmHg 83%
    Mehr zeigen